Time,TemperatureF,DewpointF,PressureIn,WindDirection,WindDirectionDegrees,WindSpeedMPH,WindSpeedGustMPH,Humidity,HourlyPrecipIn,Conditions,Clouds,dailyrainin,SolarRadiationWatts/m^2,SoftwareType,DateUTC
2013-02-24 00:01:00,38.0,27.0,-100.00,West,276,5.0,8.0,63,0.00,,,0.00,0.000000,,2013-02-24 05:01:00,
2013-02-24 00:32:00,36.0,25.0,-100.00,WNW,287,6.0,9.0,64,0.00,,,0.00,0.000000,,2013-02-24 05:32:00,
2013-02-24 00:42:00,36.0,25.0,-100.00,WNW,287,6.0,9.0,64,0.00,,,0.00,0.000000,,2013-02-24 05:42:00,
2013-02-24 00:52:00,36.0,25.0,-100.00,WNW,287,6.0,9.0,64,0.00,,,0.00,0.000000,,2013-02-24 05:52:00,
2013-02-24 01:02:00,36.0,25.0,-100.00,WNW,287,6.0,9.0,64,0.00,,,0.00,0.000000,,2013-02-24 06:02:00,
2013-02-24 01:32:00,34.0,25.0,-100.00,WNW,298,6.0,10.0,68,0.00,,,0.00,0.000000,,2013-02-24 06:32:00,
2013-02-24 01:42:00,34.0,25.0,-100.00,WNW,298,6.0,10.0,68,0.00,,,0.00,0.000000,,2013-02-24 06:42:00,
2013-02-24 01:52:00,34.0,25.0,-100.00,WNW,298,6.0,10.0,68,0.00,,,0.00,0.000000,,2013-02-24 06:52:00,
2013-02-24 02:01:00,34.0,25.0,-100.00,WNW,298,6.0,10.0,68,0.00,,,0.00,0.000000,,2013-02-24 07:01:00,
2013-02-24 02:32:00,33.0,24.0,-100.00,West,275,5.0,7.0,69,0.00,,,0.00,0.000000,,2013-02-24 07:32:00,
2013-02-24 02:42:00,33.0,24.0,-100.00,West,275,5.0,7.0,69,0.00,,,0.00,0.000000,,2013-02-24 07:42:00,
2013-02-24 02:52:00,33.0,24.0,-100.00,West,275,5.0,7.0,69,0.00,,,0.00,0.000000,,2013-02-24 07:52:00,
2013-02-24 03:01:00,33.0,24.0,-100.00,West,275,5.0,7.0,69,0.00,,,0.00,0.000000,,2013-02-24 08:01:00,
2013-02-24 03:32:00,31.0,24.0,-100.00,West,281,5.0,7.0,75,0.00,,,0.00,0.000000,,2013-02-24 08:32:00,
2013-02-24 03:42:00,31.0,24.0,-100.00,West,281,5.0,7.0,75,0.00,,,0.00,0.000000,,2013-02-24 08:42:00,
2013-02-24 03:54:00,31.0,24.0,-100.00,West,281,5.0,7.0,75,0.00,,,0.00,0.000000,,2013-02-24 08:54:00,
2013-02-24 04:02:00,31.0,24.0,-100.00,West,281,5.0,7.0,75,0.00,,,0.00,0.000000,,2013-02-24 09:02:00,
2013-02-24 04:32:00,30.0,23.0,-100.00,West,271,6.0,10.0,76,0.00,,,0.00,0.000000,,2013-02-24 09:32:00,
2013-02-24 04:42:00,30.0,23.0,-100.00,West,271,6.0,10.0,76,0.00,,,0.00,0.000000,,2013-02-24 09:42:00,
2013-02-24 04:52:00,30.0,23.0,-100.00,West,271,6.0,10.0,76,0.00,,,0.00,0.000000,,2013-02-24 09:52:00,
2013-02-24 05:01:00,30.0,23.0,-100.00,West,271,6.0,10.0,76,0.00,,,0.00,0.000000,,2013-02-24 10:01:00,
2013-02-24 05:32:00,29.0,23.0,-100.00,West,274,5.0,7.0,79,0.00,,,0.00,0.000000,,2013-02-24 10:32:00,
2013-02-24 05:42:00,29.0,23.0,-100.00,West,274,5.0,7.0,79,0.00,,,0.00,0.000000,,2013-02-24 10:42:00,
2013-02-24 05:52:00,29.0,23.0,-100.00,West,274,5.0,7.0,79,0.00,,,0.00,0.000000,,2013-02-24 10:52:00,
2013-02-24 06:01:00,29.0,23.0,-100.00,West,274,5.0,7.0,79,0.00,,,0.00,0.000000,,2013-02-24 11:01:00,
2013-02-24 06:32:00,27.0,23.0,-100.00,WSW,244,6.0,7.0,84,0.00,,,0.00,0.000000,,2013-02-24 11:32:00,
2013-02-24 06:42:00,27.0,23.0,-100.00,WSW,244,6.0,7.0,84,0.00,,,0.00,0.000000,,2013-02-24 11:42:00,
2013-02-24 06:53:00,27.0,23.0,-100.00,WSW,244,6.0,7.0,84,0.00,,,0.00,0.000000,,2013-02-24 11:53:00,
2013-02-24 07:02:00,27.0,23.0,-100.00,WSW,244,6.0,7.0,84,0.00,,,0.00,0.000000,,2013-02-24 12:02:00,
2013-02-24 07:09:00,27.0,22.0,-100.00,WNW,285,6.0,9.0,82,0.00,,,0.00,0.000000,,2013-02-24 12:09:00,
2013-02-24 07:33:00,27.0,22.0,-100.00,WNW,285,6.0,9.0,82,0.00,,,0.00,0.000000,,2013-02-24 12:33:00,
2013-02-24 07:46:00,27.0,22.0,-100.00,WNW,285,6.0,9.0,82,0.00,,,0.00,0.000000,,2013-02-24 12:46:00,
2013-02-24 07:58:00,27.0,22.0,-100.00,WNW,285,6.0,9.0,82,0.00,,,0.00,0.000000,,2013-02-24 12:58:00,
2013-02-24 08:35:00,29.0,24.0,-100.00,WNW,285,4.0,10.0,80,0.00,,,0.00,28.000000,,2013-02-24 13:35:00,
2013-02-24 08:55:00,29.0,24.0,-100.00,WNW,285,4.0,10.0,80,0.00,,,0.00,28.000000,,2013-02-24 13:55:00,
2013-02-24 09:05:00,29.0,24.0,-100.00,WNW,285,4.0,10.0,80,0.00,,,0.00,28.000000,,2013-02-24 14:05:00,
2013-02-24 09:35:00,33.0,24.0,-100.00,WNW,282,3.0,8.0,70,0.00,,,0.00,221.000000,,2013-02-24 14:35:00,
2013-02-24 09:45:00,33.0,24.0,-100.00,WNW,282,3.0,8.0,70,0.00,,,0.00,221.000000,,2013-02-24 14:45:00,
2013-02-24 09:55:00,33.0,24.0,-100.00,WNW,282,3.0,8.0,70,0.00,,,0.00,221.000000,,2013-02-24 14:55:00,
2013-02-24 10:04:00,33.0,24.0,-100.00,WNW,282,3.0,8.0,70,0.00,,,0.00,221.000000,,2013-02-24 15:04:00,
2013-02-24 10:32:00,36.0,24.0,-100.00,West,264,6.0,9.0,62,0.00,,,0.00,484.000000,,2013-02-24 15:32:00,
2013-02-24 10:42:00,36.0,24.0,-100.00,West,264,6.0,9.0,62,0.00,,,0.00,484.000000,,2013-02-24 15:42:00,
2013-02-24 10:53:00,36.0,24.0,-100.00,West,264,6.0,9.0,62,0.00,,,0.00,484.000000,,2013-02-24 15:53:00,
2013-02-24 11:01:00,36.0,24.0,-100.00,West,264,6.0,9.0,62,0.00,,,0.00,484.000000,,2013-02-24 16:01:00,
2013-02-24 11:32:00,40.0,22.0,-100.00,West,262,5.0,13.0,49,0.00,,,0.00,690.000000,,2013-02-24 16:32:00,
2013-02-24 11:42:00,40.0,22.0,-100.00,West,262,5.0,13.0,49,0.00,,,0.00,690.000000,,2013-02-24 16:42:00,
2013-02-24 11:52:00,40.0,22.0,-100.00,West,262,5.0,13.0,49,0.00,,,0.00,690.000000,,2013-02-24 16:52:00,
2013-02-24 12:01:00,40.0,22.0,-100.00,West,262,5.0,13.0,49,0.00,,,0.00,690.000000,,2013-02-24 17:01:00,
2013-02-24 12:32:00,42.0,19.0,-100.00,NW,307,9.0,15.0,39,0.00,,,0.00,819.000000,,2013-02-24 17:32:00,
2013-02-24 12:42:00,42.0,19.0,-100.00,NW,307,9.0,15.0,39,0.00,,,0.00,819.000000,,2013-02-24 17:42:00,
2013-02-24 12:53:00,42.0,19.0,-100.00,NW,307,9.0,15.0,39,0.00,,,0.00,819.000000,,2013-02-24 17:53:00,
2013-02-24 13:02:00,42.0,19.0,-100.00,NW,307,9.0,15.0,39,0.00,,,0.00,819.000000,,2013-02-24 18:02:00,
2013-02-24 13:32:00,45.0,22.0,-100.00,West,268,8.0,16.0,40,0.00,,,0.00,870.000000,,2013-02-24 18:32:00,
2013-02-24 13:42:00,45.0,22.0,-100.00,West,268,8.0,16.0,40,0.00,,,0.00,870.000000,,2013-02-24 18:42:00,
2013-02-24 13:52:00,45.0,22.0,-100.00,West,268,8.0,16.0,40,0.00,,,0.00,870.000000,,2013-02-24 18:52:00,
2013-02-24 14:01:00,45.0,22.0,-100.00,West,268,8.0,16.0,40,0.00,,,0.00,870.000000,,2013-02-24 19:01:00,
2013-02-24 14:32:00,47.0,21.0,-100.00,WNW,286,9.0,15.0,35,0.00,,,0.00,848.000000,,2013-02-24 19:32:00,
2013-02-24 14:42:00,47.0,21.0,-100.00,WNW,286,9.0,15.0,35,0.00,,,0.00,848.000000,,2013-02-24 19:42:00,
2013-02-24 14:52:00,47.0,21.0,-100.00,WNW,286,9.0,15.0,35,0.00,,,0.00,848.000000,,2013-02-24 19:52:00,
2013-02-24 15:02:00,47.0,21.0,-100.00,WNW,286,9.0,15.0,35,0.00,,,0.00,848.000000,,2013-02-24 20:02:00,
2013-02-24 15:32:00,48.0,22.0,-100.00,WNW,299,8.0,16.0,35,0.00,,,0.00,756.000000,,2013-02-24 20:32:00,
2013-02-24 15:42:00,48.0,22.0,-100.00,WNW,299,8.0,16.0,35,0.00,,,0.00,756.000000,,2013-02-24 20:42:00,
2013-02-24 15:52:00,48.0,22.0,-100.00,WNW,299,8.0,16.0,35,0.00,,,0.00,756.000000,,2013-02-24 20:52:00,
2013-02-24 16:02:00,48.0,22.0,-100.00,WNW,299,8.0,16.0,35,0.00,,,0.00,756.000000,,2013-02-24 21:02:00,
2013-02-24 16:32:00,49.0,22.0,-100.00,West,268,7.0,12.0,34,0.00,,,0.00,596.000000,,2013-02-24 21:32:00,
2013-02-24 16:42:00,49.0,22.0,-100.00,West,268,7.0,12.0,34,0.00,,,0.00,596.000000,,2013-02-24 21:42:00,
2013-02-24 16:52:00,49.0,22.0,-100.00,West,268,7.0,12.0,34,0.00,,,0.00,596.000000,,2013-02-24 21:52:00,
2013-02-24 17:01:00,49.0,22.0,-100.00,West,268,7.0,12.0,34,0.00,,,0.00,596.000000,,2013-02-24 22:01:00,
2013-02-24 17:32:00,45.0,20.0,-100.00,WNW,285,6.0,12.0,37,0.00,,,0.00,320.000000,,2013-02-24 22:32:00,
2013-02-24 17:42:00,45.0,20.0,-100.00,WNW,285,6.0,12.0,37,0.00,,,0.00,320.000000,,2013-02-24 22:42:00,
2013-02-24 17:52:00,45.0,20.0,-100.00,WNW,285,6.0,12.0,37,0.00,,,0.00,320.000000,,2013-02-24 22:52:00,
2013-02-24 18:02:00,45.0,20.0,-100.00,WNW,285,6.0,12.0,37,0.00,,,0.00,320.000000,,2013-02-24 23:02:00,
2013-02-24 18:32:00,42.0,21.0,-100.00,NNW,337,5.0,11.0,42,0.00,,,0.00,55.000000,,2013-02-24 23:32:00,
2013-02-24 18:42:00,42.0,21.0,-100.00,NNW,337,5.0,11.0,42,0.00,,,0.00,55.000000,,2013-02-24 23:42:00,
2013-02-24 18:52:00,42.0,21.0,-100.00,NNW,337,5.0,11.0,42,0.00,,,0.00,55.000000,,2013-02-24 23:52:00,
2013-02-24 19:01:00,42.0,21.0,-100.00,NNW,337,5.0,11.0,42,0.00,,,0.00,55.000000,,2013-02-25 00:01:00,
2013-02-24 19:32:00,40.0,22.0,-100.00,North,355,5.0,10.0,49,0.00,,,0.00,3.000000,,2013-02-25 00:32:00,
2013-02-24 19:42:00,40.0,22.0,-100.00,North,355,5.0,10.0,49,0.00,,,0.00,3.000000,,2013-02-25 00:42:00,
2013-02-24 19:52:00,40.0,22.0,-100.00,North,355,5.0,10.0,49,0.00,,,0.00,3.000000,,2013-02-25 00:52:00,
2013-02-24 20:01:00,40.0,22.0,-100.00,North,355,5.0,10.0,49,0.00,,,0.00,3.000000,,2013-02-25 01:01:00,
2013-02-24 20:32:00,38.0,22.0,-100.00,NNE,18,4.0,8.0,53,0.00,,,0.00,0.000000,,2013-02-25 01:32:00,
2013-02-24 20:42:00,38.0,22.0,-100.00,NNE,18,4.0,8.0,53,0.00,,,0.00,0.000000,,2013-02-25 01:42:00,
2013-02-24 20:52:00,38.0,22.0,-100.00,NNE,18,4.0,8.0,53,0.00,,,0.00,0.000000,,2013-02-25 01:52:00,
2013-02-24 21:01:00,38.0,22.0,-100.00,NNE,18,4.0,8.0,53,0.00,,,0.00,0.000000,,2013-02-25 02:01:00,
2013-02-24 21:32:00,37.0,23.0,-100.00,NE,37,3.0,7.0,57,0.00,,,0.00,0.000000,,2013-02-25 02:32:00,
2013-02-24 21:42:00,37.0,23.0,-100.00,NE,37,3.0,7.0,57,0.00,,,0.00,0.000000,,2013-02-25 02:42:00,
2013-02-24 21:52:00,37.0,23.0,-100.00,NE,37,3.0,7.0,57,0.00,,,0.00,0.000000,,2013-02-25 02:52:00,
2013-02-24 22:02:00,37.0,23.0,-100.00,NE,37,3.0,7.0,57,0.00,,,0.00,0.000000,,2013-02-25 03:02:00,
2013-02-24 22:32:00,35.0,23.0,-100.00,NE,55,6.0,8.0,61,0.00,,,0.00,0.000000,,2013-02-25 03:32:00,
2013-02-24 22:42:00,35.0,23.0,-100.00,NE,55,6.0,8.0,61,0.00,,,0.00,0.000000,,2013-02-25 03:42:00,
2013-02-24 22:52:00,35.0,23.0,-100.00,NE,55,6.0,8.0,61,0.00,,,0.00,0.000000,,2013-02-25 03:52:00,
2013-02-24 23:02:00,35.0,23.0,-100.00,NE,55,6.0,8.0,61,0.00,,,0.00,0.000000,,2013-02-25 04:02:00,
2013-02-24 23:32:00,35.0,23.0,-100.00,ENE,57,8.0,11.0,60,0.00,,,0.00,0.000000,,2013-02-25 04:32:00,
2013-02-24 23:42:00,35.0,23.0,-100.00,ENE,57,8.0,11.0,60,0.00,,,0.00,0.000000,,2013-02-25 04:42:00,
2013-02-24 23:52:00,35.0,23.0,-100.00,ENE,57,8.0,11.0,60,0.00,,,0.00,0.000000,,2013-02-25 04:52:00,